Waarnemingen

Advertentie
Mijn weer
Ploumanach, Frankrijk (7117): temperatuur & dauwpunt: 20.05.2019 15:00:00 - 26.05.2019 15:00:00 (CEST)Ploumanach, Frankrijk (7117): windsnelheid & windstoten: 20.05.2019 15:00:00 - 26.05.2019 15:00:00 (CEST)Ploumanach, Frankrijk (7117): windrichting: 20.05.2019 15:00:00 - 26.05.2019 15:00:00 (CEST)Ploumanach, Frankrijk (7117): luchtdruk: 20.05.2019 15:00:00 - 26.05.2019 15:00:00 (CEST)Ploumanach, Frankrijk (7117): zicht: 20.05.2019 15:00:00 - 26.05.2019 15:00:00 (CEST)Ploumanach, Frankrijk (7117): neerslag: 20.05.2019 15:00:00 - 26.05.2019 15:00:00 (CEST)
Datum & Tijd tt [°C] td [°C] ff [km/u] ff [kn] fx [km/u] fx [kn] dd ppp [hPa] vv [km] rr [mm]
26.05.2019 15:00:00 15,3 12,8 26 14 43 23 WZW 1018,7 - 0,0
26.05.2019 14:00:00 15,3 12,2 26 14 45 24 W 1019,1 - 0,0
26.05.2019 13:00:00 16,4 12,4 24 13 40 22 W 1019,4 - 0,0
26.05.2019 12:00:00 13,9 12,8 23 12 41 22 W 1019,8 - 0,0
26.05.2019 11:00:00 14,8 12,7 24 13 38 21 W 1019,6 16 0,0
26.05.2019 10:00:00 13,3 12,7 22 12 35 19 W 1019,9 - 0,0
26.05.2019 09:00:00 13,1 12,2 23 12 37 20 W 1020,1 - 0,0
26.05.2019 08:00:00 12,8 12,2 14 8 34 18 WZW 1020,1 20 0,0
26.05.2019 07:00:00 12,7 12,5 16 9 29 16 W 1020,1 - 0,0
26.05.2019 06:00:00 12,6 12,4 17 9 35 19 W 1020,1 - 0,2
26.05.2019 05:00:00 12,6 12,3 14 8 29 16 WZW 1020,2 - 0,0
26.05.2019 04:00:00 12,8 12,0 12 7 28 15 WZW 1020,7 - 0,0
26.05.2019 03:00:00 13,1 12,6 15 8 26 14 W 1021,2 - 0,0
26.05.2019 02:00:00 13,3 12,8 16 9 28 15 W 1021,5 - 0,0
26.05.2019 01:00:00 13,4 12,9 13 7 27 15 W 1021,9 - 0,0
26.05.2019 00:00:00 13,5 13,2 15 8 29 16 W 1022,2 - 0,0
25.05.2019 23:00:00 13,6 13,1 18 10 31 17 W 1022,2 - 0,0
25.05.2019 22:00:00 13,6 13,4 17 9 36 19 W 1021,8 - 0,0
25.05.2019 21:00:00 14,3 12,8 17 9 32 17 W 1021,8 - 0,0
25.05.2019 20:00:00 15,1 13,0 20 11 34 19 W 1021,9 9 0,0
25.05.2019 19:00:00 16,6 12,7 17 9 34 19 W 1021,8 - 0,0
25.05.2019 18:00:00 17,4 12,7 16 9 28 15 W 1022,0 - 0,0
25.05.2019 17:00:00 16,2 12,6 19 10 27 14 WNW 1022,1 15 0,0
25.05.2019 16:00:00 17,1 12,8 16 9 29 16 W 1022,2 - 0,0
25.05.2019 15:00:00 15,7 11,9 17 9 31 17 W 1022,3 - 0,0
25.05.2019 14:00:00 15,8 12,4 18 10 33 18 W 1022,6 9 0,0
25.05.2019 13:00:00 14,3 12,2 17 9 27 15 W 1022,6 - 0,0
25.05.2019 12:00:00 14,7 12,2 16 8 28 15 W 1022,9 - 0,0
25.05.2019 11:00:00 15,0 12,5 16 9 26 14 W 1022,4 9 0,0
25.05.2019 10:00:00 14,1 12,5 17 9 29 16 W 1022,5 - 0,0
25.05.2019 09:00:00 14,0 12,4 17 9 27 14 W 1022,0 - 0,0
25.05.2019 08:00:00 13,9 12,5 11 6 24 13 W 1021,9 9 0,0
25.05.2019 07:00:00 12,8 12,0 12 7 24 13 W 1021,6 - 0,0
25.05.2019 06:00:00 12,5 11,7 12 6 19 10 W 1021,3 - 0,0
25.05.2019 05:00:00 12,5 11,4 11 6 23 13 W 1021,5 - 0,0
25.05.2019 04:00:00 12,5 11,4 15 8 26 14 W 1021,6 - 0,0
25.05.2019 03:00:00 12,6 11,5 12 7 23 12 W 1021,9 - 0,0
25.05.2019 02:00:00 12,6 11,5 15 8 28 15 W 1022,1 - 0,0
25.05.2019 01:00:00 12,7 11,8 18 10 29 16 W 1022,1 - 0,0
25.05.2019 00:00:00 12,6 11,8 16 8 29 15 W 1021,9 - 0,0
24.05.2019 23:00:00 12,9 11,8 16 9 30 16 W 1021,8 - 0,0
24.05.2019 22:00:00 13,0 11,7 16 8 31 17 W 1021,4 - 0,0
24.05.2019 21:00:00 14,6 11,6 18 10 34 18 W 1021,2 - 0,0
24.05.2019 20:00:00 14,5 11,5 21 11 35 19 W 1021,0 16 0,0
24.05.2019 19:00:00 14,7 11,7 19 10 33 18 W 1021,1 - 0,0
24.05.2019 18:00:00 15,4 12,2 18 10 37 20 WNW 1021,1 - 0,0
24.05.2019 17:00:00 16,5 12,8 17 9 32 18 W 1021,2 16 0,0
24.05.2019 16:00:00 16,7 12,0 18 10 30 16 W 1021,4 - 0,0
24.05.2019 15:00:00 16,4 12,0 20 11 33 18 W 1021,3 - 0,0
24.05.2019 14:00:00 16,1 11,9 16 9 34 18 WNW 1021,4 - 0,0
24.05.2019 13:00:00 16,0 12,0 16 9 27 15 W 1021,3 - 0,0
24.05.2019 12:00:00 15,8 11,6 15 8 28 15 WNW 1021,2 - 0,0
24.05.2019 11:00:00 15,3 11,5 16 9 29 15 W 1021,1 20 0,0
24.05.2019 10:00:00 14,2 11,0 16 8 24 13 WNW 1020,9 - 0,0
24.05.2019 09:00:00 13,5 11,4 12 6 21 11 WNW 1020,3 - 0,0
24.05.2019 08:00:00 12,5 10,9 11 6 17 9 WNW 1020,2 30 0,0
24.05.2019 07:00:00 10,5 10,0 7 4 12 6 WNW 1020,1 - 0,2
24.05.2019 06:00:00 10,7 9,8 8 5 15 8 NNW 1019,6 - 0,0
24.05.2019 05:00:00 10,5 9,6 7 4 11 6 WNW 1019,3 - 0,0
24.05.2019 04:00:00 10,7 9,9 6 3 9 5 W 1019,0 - 0,0
24.05.2019 03:00:00 11,0 10,2 5 3 8 4 WZW 1019,0 - 0,0
24.05.2019 02:00:00 11,2 10,6 4 2 13 7 W 1019,1 - 0,0
24.05.2019 01:00:00 11,3 10,7 8 4 14 8 W 1019,3 - 0,0
24.05.2019 00:00:00 11,5 10,6 9 5 13 7 WZW 1019,1 - 0,0
23.05.2019 23:00:00 11,4 10,5 8 4 12 6 WZW 1019,0 - 0,0
23.05.2019 22:00:00 12,2 10,1 6 3 17 9 W 1018,5 - 0,0
23.05.2019 21:00:00 14,6 10,6 9 5 18 10 W 1018,2 - 0,0
23.05.2019 20:00:00 13,9 10,3 10 5 19 10 WNW 1018,0 20 0,0
23.05.2019 19:00:00 14,6 10,2 13 7 21 12 WNW 1018,2 - 0,0
23.05.2019 18:00:00 15,6 11,0 9 5 21 12 NW 1018,2 - 0,0
23.05.2019 17:00:00 15,4 10,8 12 6 23 13 NW 1018,0 20 0,0
23.05.2019 16:00:00 15,5 9,6 9 5 21 11 NW 1018,1 - 0,0
23.05.2019 15:00:00 15,4 10,4 14 7 22 12 NW 1018,2 - 0,0
23.05.2019 14:00:00 16,0 10,7 11 6 20 11 NW 1018,2 16 0,0
23.05.2019 13:00:00 17,1 10,7 10 6 20 11 W 1018,2 - 0,0
23.05.2019 12:00:00 15,1 11,3 11 6 19 10 WNW 1018,6 - 0,0
23.05.2019 11:00:00 13,9 10,3 12 6 19 10 W 1018,6 12 0,0
23.05.2019 10:00:00 13,8 10,6 11 6 19 10 WZW 1018,4 - 0,0
23.05.2019 09:00:00 13,8 10,4 9 5 16 8 WZW 1018,3 - 0,0
23.05.2019 08:00:00 11,3 8,5 10 5 13 7 ZW 1017,9 12 0,0
23.05.2019 07:00:00 10,5 6,4 7 4 13 7 ZW 1017,7 - 0,0
23.05.2019 06:00:00 10,6 7,7 11 6 15 8 ZZW 1017,6 - 0,2
23.05.2019 05:00:00 10,8 9,2 9 5 16 9 ZW 1017,8 - 0,0
23.05.2019 04:00:00 10,9 9,3 11 6 14 7 ZW 1018,1 - 0,0
23.05.2019 03:00:00 11,0 9,9 10 5 15 8 WZW 1018,6 - 0,0
23.05.2019 02:00:00 11,1 10,0 10 6 13 7 ZW 1018,9 - 0,0
23.05.2019 01:00:00 11,6 10,3 4 2 9 5 W 1019,0 - 0,0
23.05.2019 00:00:00 11,6 10,2 6 3 9 5 WZW 1019,3 - 0,0
22.05.2019 23:00:00 12,4 9,9 3 1 6 4 NNW 1019,5 - 0,0
22.05.2019 22:00:00 12,8 10,2 4 2 11 6 O 1019,2 - 0,0
22.05.2019 21:00:00 14,3 10,1 6 3 21 11 ONO 1018,9 - 0,0
22.05.2019 20:00:00 15,4 9,7 11 6 21 11 ONO 1018,9 25 0,0
22.05.2019 19:00:00 18,0 11,3 3 2 21 11 ONO 1018,9 - 0,0
22.05.2019 18:00:00 16,8 11,7 15 8 26 14 NO 1019,2 - 0,0
22.05.2019 17:00:00 17,1 12,2 12 7 19 11 ONO 1019,6 18 0,0
22.05.2019 16:00:00 17,0 11,5 15 8 27 15 NO 1019,9 - 0,0
22.05.2019 15:00:00 17,4 11,0 15 8 28 15 ONO 1020,1 - 0,0
22.05.2019 14:00:00 16,6 11,5 18 10 28 15 NO 1020,5 - 0,0
22.05.2019 13:00:00 16,5 11,8 15 8 21 11 NO 1020,7 - 0,0
22.05.2019 12:00:00 16,4 12,2 11 6 16 9 ONO 1020,8 - 0,0
22.05.2019 11:00:00 14,7 11,1 7 4 14 8 ONO 1021,1 12 0,0
22.05.2019 10:00:00 14,5 11,3 9 5 13 7 ONO 1021,1 - 0,0
22.05.2019 09:00:00 13,1 10,3 8 4 12 7 O 1021,1 - 0,0
22.05.2019 08:00:00 12,2 10,4 5 3 12 7 O 1020,8 14 0,0
22.05.2019 07:00:00 10,4 9,8 7 4 12 6 ZO 1020,7 - 0,0
22.05.2019 06:00:00 10,1 9,6 7 4 11 6 ZO 1020,8 - 0,0
22.05.2019 05:00:00 10,7 10,5 6 4 8 5 OZO 1020,9 - 0,0
22.05.2019 04:00:00 10,7 10,5 4 2 5 3 O 1021,3 - 0,2
22.05.2019 03:00:00 11,1 10,9 0 0 4 2 N 1021,3 - 0,0
22.05.2019 02:00:00 10,9 10,7 3 1 5 3 WZW 1021,6 - 0,0
22.05.2019 01:00:00 11,1 10,6 3 1 4 2 W 1021,6 - 0,0
22.05.2019 00:00:00 11,3 10,2 0 0 3 2 N 1021,6 - 0,0
21.05.2019 23:00:00 11,4 10,1 0 0 0 0 N 1021,6 - 0,0
21.05.2019 22:00:00 12,0 10,6 0 0 5 3 N 1021,4 - 0,0
21.05.2019 21:00:00 13,6 10,9 4 2 7 4 NNO 1021,0 - 0,0
21.05.2019 20:00:00 14,3 11,4 5 3 9 5 NNO 1020,9 10 0,0
21.05.2019 19:00:00 14,7 11,7 7 4 11 6 NO 1020,9 - 0,0
21.05.2019 18:00:00 15,2 12,0 8 4 12 7 NO 1020,8 - 0,0
21.05.2019 17:00:00 16,0 12,0 9 5 13 7 NNO 1020,6 6 0,0
21.05.2019 16:00:00 15,6 11,8 9 5 15 8 NNO 1020,8 - 0,0
21.05.2019 15:00:00 15,7 12,1 10 5 16 9 NNO 1020,6 - 0,0
21.05.2019 14:00:00 16,2 11,6 9 5 16 9 NNO 1020,5 6 0,0
21.05.2019 13:00:00 15,0 11,2 10 5 16 9 WNW 1020,4 - 0,0
21.05.2019 12:00:00 15,0 11,4 9 5 19 10 WNW 1020,2 - 0,0
21.05.2019 11:00:00 13,5 11,2 11 6 18 10 WNW 1020,1 1,0 0,0
21.05.2019 10:00:00 11,8 11,2 4 2 12 7 WZW 1019,8 - 0,0
21.05.2019 09:00:00 10,4 10,4 5 3 15 8 ZZW 1019,2 - 0,0
21.05.2019 08:00:00 9,6 9,6 6 4 16 9 ZW 1018,9 - 0,0
21.05.2019 07:00:00 9,6 9,6 10 6 20 11 WZW 1018,5 - 0,0
21.05.2019 06:00:00 9,6 9,6 9 5 19 10 WZW 1018,4 - 0,2
21.05.2019 05:00:00 9,8 9,8 16 8 20 11 ZW 1018,0 - 0,0
21.05.2019 04:00:00 9,7 9,6 14 8 18 10 ZW 1017,9 - 0,0
21.05.2019 03:00:00 9,9 9,7 14 8 19 10 ZW 1017,6 - 0,0
21.05.2019 02:00:00 10,0 9,7 12 7 18 10 ZW 1017,6 - 0,2
21.05.2019 01:00:00 10,4 10,1 11 6 14 8 ZZW 1017,6 - 0,0
21.05.2019 00:00:00 10,6 10,1 10 5 13 7 ZW 1017,6 - 0,0
20.05.2019 23:00:00 11,1 10,5 7 4 16 9 WZW 1017,4 - 0,0
20.05.2019 22:00:00 11,7 10,8 9 5 20 11 W 1016,9 - 0,0
20.05.2019 21:00:00 13,2 10,9 13 7 23 12 W 1016,6 - 0,0
20.05.2019 20:00:00 14,2 10,4 14 8 23 12 W 1016,2 16 0,0
20.05.2019 19:00:00 14,6 10,4 14 8 27 14 WNW 1015,9 - 0,0
20.05.2019 18:00:00 15,2 10,6 16 9 28 15 W 1015,7 - 0,0
20.05.2019 17:00:00 15,3 10,5 17 9 27 15 W 1015,6 - 0,0
20.05.2019 16:00:00 15,6 10,8 16 9 32 17 W 1015,4 - 0,0
20.05.2019 15:00:00 - - - - - - - - - -

tt = temperatuur
td = dauwpunt
ff = windsnelheid
fx = windstoten
dd = windrichting
ppp = luchtdruk
vv = zicht
rr = neerslag

Weerstations in de omgeving